^^
Saratoga-Weather Station Historical Data
Daily Summary for May 12, 2022 Units:  English    Metric   Both
Daily Weekly Monthly Yearly Custom
  High: Low: Average:
Temperature: 72 °F 56.1 °F 64.2 °F
Dew Point: 53.8 °F 50.4 °F 52.2 °F
Humidity: 83% 50% 66%
Wind Speed: 11mph 0mph 3.8mph
Wind Gust: 16mph - -
Wind- - West
Pressure: 30.1 in 29.9 in -
Precipitation: 0 in    
Historical Graphs
 
 
Tabular Data for May 12, 2022
Time Temperature Dew Point Pressure Wind Wind Speed Wind Gust Humidity Rainfall Rate (Hourly) solar
00:01 67.5 °F 50.7 °F 29.9 in Calm   5 mph 55% 0 in 0 W/m2
00:06 67.3 °F 51.1 °F 29.9 in West 2.9 mph 11 mph 56% 0 in 0 W/m2
00:11 67.1 °F 50.9 °F 29.9 in West 2.9 mph 7 mph 56% 0 in 0 W/m2
00:16 66.9 °F 51.3 °F 29.9 in West 2.9 mph 6 mph 57% 0 in 0 W/m2
00:21 66.6 °F 50.9 °F 29.9 in WNW 2 mph 10 mph 57% 0 in 0 W/m2
00:26 66.4 °F 51.1 °F 29.9 in WSW 4.9 mph 8 mph 58% 0 in 0 W/m2
00:31 66.2 °F 51.4 °F 29.9 in West 6 mph 9 mph 59% 0 in 0 W/m2
00:36 66 °F 51.3 °F 29.9 in West 2 mph 8 mph 59% 0 in 0 W/m2
00:41 65.8 °F 52 °F 29.9 in West 4 mph 7 mph 61% 0 in 0 W/m2
00:46 65.7 °F 51.8 °F 29.9 in West 8.1 mph 8 mph 61% 0 in 0 W/m2
00:51 65.7 °F 52.3 °F 29.9 in West 2 mph 8 mph 62% 0 in 0 W/m2
00:56 65.5 °F 52.5 °F 29.9 in West 4 mph 7 mph 63% 0 in 0 W/m2
01:01 65.3 °F 52.9 °F 29.9 in West 6.9 mph 7 mph 64% 0 in 0 W/m2
01:06 65.1 °F 52.7 °F 29.9 in West 4 mph 11 mph 64% 0 in 0 W/m2
01:11 64.9 °F 52.9 °F 29.9 in West 2 mph 8 mph 65% 0 in 0 W/m2
01:16 64.8 °F 52.7 °F 29.9 in WNW 6 mph 11 mph 65% 0 in 0 W/m2
01:22 64.6 °F 52.9 °F 29.9 in West 2 mph 5 mph 66% 0 in 0 W/m2
01:27 64.2 °F 53.1 °F 29.9 in West 4 mph 7 mph 67% 0 in 0 W/m2
01:32 64.2 °F 53.1 °F 29.9 in SW 2.9 mph 8 mph 67% 0 in 0 W/m2
01:37 64 °F 53.2 °F 29.9 in West 4 mph 7 mph 68% 0 in 0 W/m2
01:42 64 °F 53.2 °F 29.9 in WNW 6.9 mph 8 mph 68% 0 in 0 W/m2
01:47 63.9 °F 53.1 °F 29.9 in West 10.1 mph 10 mph 68% 0 in 0 W/m2
01:52 63.9 °F 53.4 °F 29.9 in WNW 2.9 mph 4 mph 69% 0 in 0 W/m2
01:57 63.7 °F 53.2 °F 29.9 in West 6 mph 9 mph 69% 0 in 0 W/m2
02:02 63.7 °F 53.8 °F 29.9 in West 6.9 mph 10 mph 70% 0 in 0 W/m2
02:07 63.3 °F 53.4 °F 29.9 in WSW 2.9 mph 8 mph 70% 0 in 0 W/m2
02:12 63.1 °F 53.6 °F 29.9 in West 8.9 mph 9 mph 71% 0 in 0 W/m2
02:17 63.1 °F 53.6 °F 29.9 in WSW 4.9 mph 8 mph 71% 0 in 0 W/m2
02:22 63 °F 53.4 °F 29.9 in West 2.9 mph 7 mph 71% 0 in 0 W/m2
02:27 63 °F 53.8 °F 29.9 in WNW 2.9 mph 8 mph 72% 0 in 0 W/m2
02:32 62.6 °F 53.4 °F 29.9 in WNW 4.9 mph 6 mph 72% 0 in 0 W/m2
02:37 62.4 °F 53.2 °F 29.9 in Calm   8 mph 72% 0 in 0 W/m2
02:42 62.2 °F 53.4 °F 29.9 in WSW 2 mph 3 mph 73% 0 in 0 W/m2
02:47 62.1 °F 53.2 °F 29.9 in West 2.9 mph 7 mph 73% 0 in 0 W/m2
02:52 62.1 °F 53.2 °F 29.9 in WNW 2.9 mph 5 mph 73% 0 in 0 W/m2
02:57 61.9 °F 53.4 °F 29.9 in WSW 2 mph 7 mph 74% 0 in 0 W/m2
03:02 61.5 °F 53.2 °F 30 in WNW 0.9 mph 4 mph 74% 0 in 0 W/m2
03:07 61.3 °F 53.4 °F 30 in WNW 2.9 mph 3 mph 75% 0 in 0 W/m2
03:12 61.3 °F 53.4 °F 30 in WSW 0.9 mph 4 mph 75% 0 in 0 W/m2
03:17 61.2 °F 53.6 °F 30 in WNW 2 mph 3 mph 76% 0 in 0 W/m2
03:22 61.2 °F 53.6 °F 30 in West 2.9 mph 3 mph 76% 0 in 0 W/m2
03:27 61 °F 53.4 °F 30 in WSW 4 mph 4 mph 76% 0 in 0 W/m2
03:32 61 °F 53.4 °F 30 in WNW 2.9 mph 4 mph 76% 0 in 0 W/m2
03:37 60.8 °F 53.6 °F 30 in West 4 mph 8 mph 77% 0 in 0 W/m2
03:42 60.6 °F 53.4 °F 30 in West 2 mph 6 mph 77% 0 in 0 W/m2
03:47 60.4 °F 53.2 °F 30 in WSW 8.1 mph 8 mph 77% 0 in 0 W/m2
03:52 60.3 °F 53.1 °F 30 in SW 6 mph 7 mph 77% 0 in 0 W/m2
03:57 60.3 °F 53.4 °F 30 in NW 2.9 mph 8 mph 78% 0 in 0 W/m2
04:02 60.1 °F 53.2 °F 30 in West 4 mph 9 mph 78% 0 in 0 W/m2
04:07 60.1 °F 52.9 °F 30 in SW 4 mph 8 mph 77% 0 in 0 W/m2
04:12 60.1 °F 52.9 °F 30 in WSW 0.9 mph 6 mph 77% 0 in 0 W/m2
04:17 59.7 °F 52.9 °F 30 in Calm   7 mph 78% 0 in 0 W/m2
04:22 59.5 °F 53.1 °F 30 in Calm   2 mph 79% 0 in 0 W/m2
04:27 59.4 °F 52.9 °F 30 in South 0.9 mph 3 mph 79% 0 in 0 W/m2
04:32 59.2 °F 53.1 °F 30 in Calm   1 mph 80% 0 in 0 W/m2
04:37 58.8 °F 52.7 °F 30 in ESE 0.9 mph 3 mph 80% 0 in 0 W/m2
04:42 58.6 °F 52.9 °F 30 in SSE 2 mph 2 mph 81% 0 in 0 W/m2
04:47 58.3 °F 52.5 °F 30 in Calm   1 mph 81% 0 in 0 W/m2
04:52 57.9 °F 52.5 °F 30 in Calm   2 mph 82% 0 in 0 W/m2
04:57 57.9 °F 52.5 °F 30 in WNW 0.9 mph 3 mph 82% 0 in 0 W/m2
05:02 57.7 °F 52.3 °F 30 in Calm   4 mph 82% 0 in 0 W/m2
05:07 57.7 °F 52.3 °F 30 in WSW 4 mph 4 mph 82% 0 in 0 W/m2
05:17 57.7 °F 52.3 °F 30 in Calm   3 mph 82% 0 in 0 W/m2
05:22 57.6 °F 52.5 °F 30 in Calm   3 mph 83% 0 in 0 W/m2
05:27 57.6 °F 52.5 °F 30 in WNW 2.9 mph 6 mph 83% 0 in 0 W/m2
05:32 57.6 °F 52.2 °F 30 in WNW 2.9 mph 8 mph 82% 0 in 0 W/m2
05:37 57.6 °F 51.8 °F 30 in West 8.1 mph 8 mph 81% 0 in 0 W/m2
05:42 57.4 °F 51.6 °F 30 in SW 4 mph 9 mph 81% 0 in 0 W/m2
05:47 57.4 °F 51.3 °F 30 in WNW 8.1 mph 11 mph 80% 0 in 0 W/m2
05:52 57.2 °F 51.1 °F 30 in West 6.9 mph 7 mph 80% 0 in 0 W/m2
05:57 57 °F 50.9 °F 30 in West 2.9 mph 11 mph 80% 0 in 0 W/m2
06:02 56.8 °F 51.1 °F 30 in West 2.9 mph 4 mph 81% 0 in 5 W/m2
06:07 56.8 °F 51.1 °F 30 in WNW 2 mph 6 mph 81% 0 in 7 W/m2
06:12 56.7 °F 51.3 °F 30 in West 2.9 mph 4 mph 82% 0 in 9 W/m2
06:17 56.5 °F 51.1 °F 30 in West 2 mph 8 mph 82% 0 in 12 W/m2
06:22 56.5 °F 51.4 °F 30 in WSW 8.9 mph 9 mph 83% 0 in 14 W/m2
06:27 56.3 °F 51.3 °F 30 in West 6 mph 8 mph 83% 0 in 16 W/m2
06:32 56.3 °F 51.3 °F 30 in SW 4 mph 8 mph 83% 0 in 19 W/m2
06:37 56.3 °F 51.3 °F 30 in West 6 mph 8 mph 83% 0 in 21 W/m2
06:42 56.3 °F 51.3 °F 30 in WNW 6 mph 9 mph 83% 0 in 25 W/m2
06:47 56.1 °F 51.1 °F 30 in WSW 4.9 mph 9 mph 83% 0 in 26 W/m2
06:52 56.1 °F 51.1 °F 30 in WNW 4.9 mph 8 mph 83% 0 in 26 W/m2
06:57 56.1 °F 51.1 °F 30 in West 6 mph 8 mph 83% 0 in 30 W/m2
07:02 56.1 °F 51.1 °F 30 in WNW 2.9 mph 7 mph 83% 0 in 30 W/m2
07:07 56.1 °F 51.1 °F 30 in West 6.9 mph 7 mph 83% 0 in 33 W/m2
07:12 56.3 °F 51.3 °F 30 in West 6 mph 8 mph 83% 0 in 35 W/m2
07:17 56.3 °F 51.3 °F 30 in NW 2.9 mph 6 mph 83% 0 in 39 W/m2
07:22 56.3 °F 51.3 °F 30 in WNW 2.9 mph 4 mph 83% 0 in 42 W/m2
07:27 56.5 °F 51.4 °F 30.1 in WSW 4 mph 7 mph 83% 0 in 44 W/m2
07:32 56.5 °F 51.4 °F 30.1 in WNW 10.1 mph 10 mph 83% 0 in 54 W/m2
07:37 56.5 °F 51.4 °F 30.1 in West 2.9 mph 9 mph 83% 0 in 63 W/m2
07:42 56.5 °F 51.4 °F 30.1 in WNW 4 mph 7 mph 83% 0 in 72 W/m2
07:47 56.5 °F 51.4 °F 30.1 in WNW 2.9 mph 7 mph 83% 0 in 79 W/m2
07:52 56.7 °F 51.6 °F 30.1 in SW 4.9 mph 7 mph 83% 0 in 60 W/m2
07:57 56.7 °F 51.6 °F 30.1 in West 4 mph 7 mph 83% 0 in 39 W/m2
08:02 56.7 °F 51.6 °F 30.1 in West 6 mph 7 mph 83% 0 in 51 W/m2
08:07 56.7 °F 51.6 °F 30.1 in WNW 6.9 mph 8 mph 83% 0 in 53 W/m2
08:12 56.8 °F 51.8 °F 30.1 in West 0.9 mph 7 mph 83% 0 in 91 W/m2
08:17 57.4 °F 52.3 °F 30.1 in WNW 6.9 mph 9 mph 83% 0 in 144 W/m2
08:22 57.7 °F 52 °F 30.1 in West 4 mph 12 mph 81% 0 in 97 W/m2
08:27 58.1 °F 52 °F 30.1 in West 4 mph 7 mph 80% 0 in 114 W/m2
08:32 58.3 °F 51.8 °F 30.1 in NW 6 mph 10 mph 79% 0 in 120 W/m2
08:37 58.3 °F 51.8 °F 30.1 in SW 2.9 mph 5 mph 79% 0 in 135 W/m2
08:42 58.5 °F 51.6 °F 30.1 in West 4 mph 8 mph 78% 0 in 123 W/m2
08:47 58.5 °F 51.6 °F 30.1 in NW 2.9 mph 4 mph 78% 0 in 158 W/m2
08:52 58.6 °F 51.1 °F 30.1 in NW 2 mph 8 mph 76% 0 in 179 W/m2
08:57 59 °F 50.7 °F 30.1 in WSW 4 mph 8 mph 74% 0 in 181 W/m2
09:02 59.4 °F 51.1 °F 30.1 in WNW 2 mph 7 mph 74% 0 in 172 W/m2
09:07 59.4 °F 50.4 °F 30.1 in WNW 2.9 mph 7 mph 72% 0 in 165 W/m2
09:12 59.2 °F 50.9 °F 30.1 in NW 4 mph 6 mph 74% 0 in 172 W/m2
09:17 59.4 °F 50.7 °F 30.1 in West 4 mph 6 mph 73% 0 in 155 W/m2
09:22 59.5 °F 50.9 °F 30.1 in WNW 6.9 mph 11 mph 73% 0 in 134 W/m2
09:27 59.7 °F 51.1 °F 30.1 in WSW 4.9 mph 7 mph 73% 0 in 123 W/m2
09:32 60.3 °F 50.9 °F 30.1 in WSW 4 mph 8 mph 71% 0 in 100 W/m2
09:37 60.6 °F 50.7 °F 30.1 in West 6.9 mph 10 mph 70% 0 in 90 W/m2
09:42 61 °F 51.1 °F 30.1 in WSW 4 mph 8 mph 70% 0 in 132 W/m2
09:47 61 °F 50.7 °F 30.1 in West 4 mph 7 mph 69% 0 in 207 W/m2
09:52 61.3 °F 51.4 °F 30.1 in West 2 mph 8 mph 70% 0 in 239 W/m2
09:57 61.3 °F 51.4 °F 30.1 in West 6 mph 8 mph 70% 0 in 239 W/m2
10:02 61.5 °F 52 °F 30.1 in SW 4 mph 7 mph 71% 0 in 190 W/m2
10:07 61.7 °F 52.2 °F 30.1 in WNW 2 mph 6 mph 71% 0 in 619 W/m2
10:12 62.1 °F 52.5 °F 30.1 in West 4 mph 10 mph 71% 0 in 619 W/m2
10:17 62.4 °F 52.2 °F 30.1 in WNW 6.9 mph 10 mph 69% 0 in 619 W/m2
10:22 62.4 °F 52.2 °F 30.1 in NW 4 mph 7 mph 69% 0 in 624 W/m2
10:27 62.8 °F 52.5 °F 30.1 in WSW 6.9 mph 11 mph 69% 0 in 624 W/m2
10:32 62.8 °F 52 °F 30.1 in SW 4.9 mph 12 mph 68% 0 in 635 W/m2
10:37 63 °F 52.7 °F 30.1 in SW 2.9 mph 11 mph 69% 0 in 647 W/m2
10:42 63.1 °F 52.9 °F 30.1 in WSW 4.9 mph 11 mph 69% 0 in 656 W/m2
10:47 63.3 °F 52.2 °F 30.1 in West 2 mph 10 mph 67% 0 in 673 W/m2
10:52 63.9 °F 53.1 °F 30.1 in NW 2.9 mph 6 mph 68% 0 in 694 W/m2
10:57 63.9 °F 52.7 °F 30.1 in West 4 mph 11 mph 67% 0 in 635 W/m2
11:02 64 °F 52.9 °F 30.1 in West 8.1 mph 10 mph 67% 0 in 719 W/m2
11:07 64.2 °F 52.7 °F 30.1 in WNW 6.9 mph 7 mph 66% 0 in 698 W/m2
11:12 64.8 °F 52.3 °F 30.1 in NW 2.9 mph 8 mph 64% 0 in 737 W/m2
11:17 64.8 °F 51.8 °F 30.1 in NW 2 mph 8 mph 63% 0 in 761 W/m2
11:22 65.3 °F 52.9 °F 30.1 in West 10.1 mph 10 mph 64% 0 in 772 W/m2
11:27 65.3 °F 52.9 °F 30.1 in ENE 0.9 mph 2 mph 64% 0 in 786 W/m2
11:32 65.7 °F 52.3 °F 30.1 in NW 2.9 mph 7 mph 62% 0 in 821 W/m2
11:37 65.8 °F 52.9 °F 30.1 in West 4 mph 9 mph 63% 0 in 833 W/m2
11:42 66.2 °F 52.9 °F 30.1 in WNW 6.9 mph 10 mph 62% 0 in 824 W/m2
11:47 66.7 °F 53.2 °F 30.1 in WSW 4.9 mph 11 mph 62% 0 in 861 W/m2
11:52 66.6 °F 53.1 °F 30.1 in WNW 4.9 mph 8 mph 62% 0 in 163 W/m2
11:57 66.4 °F 53.4 °F 30.1 in West 6.9 mph 11 mph 63% 0 in 877 W/m2
12:02 66.4 °F 53.4 °F 30.1 in WSW 4 mph 11 mph 63% 0 in 336 W/m2
12:07 66 °F 52.7 °F 30.1 in NW 0.9 mph 9 mph 62% 0 in 199 W/m2
12:12 65.8 °F 52.5 °F 30.1 in West 2.9 mph 11 mph 62% 0 in 461 W/m2
12:17 65.8 °F 52 °F 30.1 in West 8.1 mph 10 mph 61% 0 in 218 W/m2
12:22 66 °F 52.7 °F 30.1 in WSW 0.9 mph 4 mph 62% 0 in 902 W/m2
12:27 66.7 °F 52.3 °F 30.1 in West 2.9 mph 8 mph 60% 0 in 935 W/m2
12:32 67.5 °F 52.2 °F 30.1 in West 0.9 mph 8 mph 58% 0 in 902 W/m2
12:37 67.8 °F 52.5 °F 30.1 in WSW 4 mph 9 mph 58% 0 in 325 W/m2
12:42 68 °F 53.1 °F 30.1 in South 4.9 mph 7 mph 59% 0 in 752 W/m2
12:47 68.2 °F 53.2 °F 30.1 in WSW 6.9 mph 9 mph 59% 0 in 854 W/m2
12:52 67.8 °F 52.5 °F 30.1 in NW 10.1 mph 13 mph 58% 0 in 1020 W/m2
12:57 67.6 °F 51.8 °F 30.1 in WNW 6.9 mph 11 mph 57% 0 in 937 W/m2
13:02 68 °F 51.8 °F 30.1 in West 2.9 mph 6 mph 56% 0 in 1027 W/m2
13:07 68.2 °F 51.8 °F 30.1 in NW 2 mph 9 mph 56% 0 in 255 W/m2
13:12 68.2 °F 51.4 °F 30.1 in WNW 0.9 mph 11 mph 55% 0 in 947 W/m2
13:17 68.2 °F 51.4 °F 30.1 in West 8.1 mph 11 mph 55% 0 in 200 W/m2
13:22 68.2 °F 51.8 °F 30.1 in WNW 2 mph 10 mph 56% 0 in 928 W/m2
13:27 68.7 °F 52 °F 30.1 in West 11 mph 16 mph 55% 0 in 1025 W/m2
13:32 68.2 °F 51.4 °F 30.1 in NNW 0.9 mph 7 mph 55% 0 in 1023 W/m2
13:37 68.4 °F 51.6 °F 30.1 in NW 4 mph 9 mph 55% 0 in 976 W/m2
13:42 68.7 °F 52.9 °F 30.1 in WNW 8.9 mph 11 mph 57% 0 in 1002 W/m2
13:47 68.5 °F 51.8 °F 30.1 in WNW 8.1 mph 12 mph 55% 0 in 1002 W/m2
13:53 68.2 °F 51.8 °F 30.1 in WNW 2.9 mph 9 mph 56% 0 in 703 W/m2
13:58 68.9 °F 52 °F 30.1 in WSW 2.9 mph 13 mph 55% 0 in 972 W/m2
14:03 69.1 °F 52.2 °F 30.1 in WSW 4.9 mph 10 mph 55% 0 in 851 W/m2
14:08 68.7 °F 52.3 °F 30.1 in NNW 4.9 mph 13 mph 56% 0 in 949 W/m2
14:13 69.1 °F 52.2 °F 30.1 in NW 4 mph 9 mph 55% 0 in 974 W/m2
14:18 68.7 °F 52.3 °F 30.1 in NW 8.9 mph 9 mph 56% 0 in 847 W/m2
14:23 68.5 °F 52.2 °F 30.1 in West 2 mph 8 mph 56% 0 in 234 W/m2
14:28 69.1 °F 53.2 °F 30.1 in WSW 2 mph 5 mph 57% 0 in 786 W/m2
14:33 69.6 °F 51.8 °F 30.1 in WNW 6.9 mph 9 mph 53% 0 in 881 W/m2
14:38 69.8 °F 52.9 °F 30.1 in NW 4.9 mph 5 mph 55% 0 in 900 W/m2
14:43 69.8 °F 52.9 °F 30.1 in NW 2 mph 4 mph 55% 0 in 954 W/m2
14:48 70.5 °F 52.5 °F 30.1 in NW 2.9 mph 8 mph 53% 0 in 884 W/m2
14:53 70.3 °F 51.8 °F 30.1 in WNW 4 mph 9 mph 52% 0 in 972 W/m2
14:58 70.2 °F 51.3 °F 30.1 in WSW 4.9 mph 8 mph 51% 0 in 1009 W/m2
15:03 70.3 °F 51.8 °F 30.1 in WNW 0.9 mph 7 mph 52% 0 in 1013 W/m2
15:08 71.1 °F 52.5 °F 30.1 in SW 4 mph 5 mph 52% 0 in 1009 W/m2
15:13 72 °F 52.9 °F 30.1 in NNW 2.9 mph 10 mph 51% 0 in 807 W/m2
15:18 71.8 °F 52.2 °F 30.1 in WSW 2.9 mph 10 mph 50% 0 in 687 W/m2
15:23 71.2 °F 51.6 °F 30.1 in WNW 6.9 mph 10 mph 50% 0 in 694 W/m2
15:33 70.9 °F 52.9 °F 30.1 in SW 2 mph 4 mph 53% 0 in 496 W/m2
15:38 71.1 °F 52.5 °F 30.1 in WSW 2 mph 8 mph 52% 0 in 608 W/m2
15:43 71.1 °F 52.5 °F 30.1 in NW 2.9 mph 9 mph 52% 0 in 526 W/m2
15:48 71.1 °F 52 °F 30.1 in West 2.9 mph 8 mph 51% 0 in 589 W/m2
15:53 70.9 °F 51.8 °F 30.1 in West 2 mph 5 mph 51% 0 in 585 W/m2
15:58 70.7 °F 51.6 °F 30 in ENE 6 mph 9 mph 51% 0 in 963 W/m2
16:03 71.1 °F 52 °F 30.1 in WSW 6.9 mph 8 mph 51% 0 in 784 W/m2
16:08 70.9 °F 52.3 °F 30.1 in WNW 4 mph 6 mph 52% 0 in 267 W/m2
16:13 70.7 °F 52.2 °F 30.1 in West 6 mph 15 mph 52% 0 in 598 W/m2
16:18 70.7 °F 51.1 °F 30.1 in West 4 mph 11 mph 50% 0 in 659 W/m2
16:23 70.9 °F 52.3 °F 30.1 in West 2 mph 11 mph 52% 0 in 645 W/m2
16:28 70.9 °F 52.3 °F 30.1 in WNW 6.9 mph 11 mph 52% 0 in 650 W/m2
16:33 70.9 °F 52.9 °F 30 in North 0.9 mph 8 mph 53% 0 in 789 W/m2
16:38 71.1 °F 52.5 °F 30.1 in West 6.9 mph 9 mph 52% 0 in 698 W/m2
16:43 71.4 °F 52.3 °F 30 in West 6 mph 6 mph 51% 0 in 253 W/m2
16:48 71.4 °F 52.3 °F 30 in WNW 6.9 mph 7 mph 51% 0 in 833 W/m2
16:53 71.6 °F 52.5 °F 30 in West 2 mph 9 mph 51% 0 in 759 W/m2
16:58 71.8 °F 52.2 °F 30 in West 8.1 mph 9 mph 50% 0 in 654 W/m2
17:03 71.2 °F 51.6 °F 30 in WNW 8.9 mph 12 mph 50% 0 in 366 W/m2
17:08 70.5 °F 51.4 °F 30 in WNW 10.1 mph 13 mph 51% 0 in 396 W/m2
17:13 70.5 °F 52 °F 30 in WSW 2.9 mph 6 mph 52% 0 in 487 W/m2
17:18 70.3 °F 51.4 °F 30 in West 8.1 mph 11 mph 51% 0 in 339 W/m2
17:23 70 °F 51.6 °F 30 in NW 8.1 mph 11 mph 52% 0 in 550 W/m2
17:28 70.2 °F 51.8 °F 30 in West 4 mph 9 mph 52% 0 in 596 W/m2
17:33 70.3 °F 52.3 °F 30 in North 2.9 mph 6 mph 53% 0 in 330 W/m2
17:38 70.3 °F 51.8 °F 30 in West 6 mph 7 mph 52% 0 in 459 W/m2
17:43 70.5 °F 52 °F 30 in West 6.9 mph 12 mph 52% 0 in 234 W/m2
17:48 70.2 °F 52.2 °F 30 in WNW 8.1 mph 11 mph 53% 0 in 517 W/m2
17:53 70.2 °F 52.2 °F 30 in WNW 8.1 mph 12 mph 53% 0 in 348 W/m2
17:58 70 °F 52 °F 30 in WNW 2.9 mph 8 mph 53% 0 in 345 W/m2
18:03 70 °F 52 °F 30 in West 2.9 mph 11 mph 53% 0 in 244 W/m2
18:08 69.6 °F 52.2 °F 30 in WSW 2.9 mph 5 mph 54% 0 in 265 W/m2
18:13 69.6 °F 52.2 °F 30 in WNW 2 mph 4 mph 54% 0 in 236 W/m2
18:18 69.6 °F 52.2 °F 30 in SW 6 mph 9 mph 54% 0 in 241 W/m2
18:23 69.6 °F 52.2 °F 30 in SW 2.9 mph 7 mph 54% 0 in 213 W/m2
18:28 69.4 °F 52.5 °F 30 in WNW 2.9 mph 4 mph 55% 0 in 188 W/m2
18:33 69.4 °F 52.2 °F 30 in West 6.9 mph 10 mph 54% 0 in 183 W/m2
18:38 69.3 °F 52.3 °F 30 in WSW 4 mph 4 mph 55% 0 in 172 W/m2
18:43 69.3 °F 52 °F 30 in NW 6 mph 10 mph 54% 0 in 171 W/m2
18:48 69.1 °F 51.8 °F 30 in WNW 8.1 mph 8 mph 54% 0 in 153 W/m2
18:53 69.1 °F 52.2 °F 30 in West 6 mph 7 mph 55% 0 in 151 W/m2
18:58 68.9 °F 52.5 °F 30 in WSW 4 mph 8 mph 56% 0 in 144 W/m2
19:08 68.5 °F 52.2 °F 30 in West 4 mph 5 mph 56% 0 in 123 W/m2
19:13 68.5 °F 52.7 °F 30 in WNW 0.9 mph 4 mph 57% 0 in 120 W/m2
19:18 68.4 °F 52 °F 30 in West 2.9 mph 7 mph 56% 0 in 128 W/m2
19:23 68.5 °F 52.7 °F 30 in WSW 2 mph 6 mph 57% 0 in 121 W/m2
19:28 68.5 °F 52.7 °F 30 in NW 6.9 mph 7 mph 57% 0 in 104 W/m2
19:33 68.4 °F 52 °F 30 in NW 4.9 mph 8 mph 56% 0 in 84 W/m2
19:38 68.2 °F 52.3 °F 30 in WNW 4 mph 5 mph 57% 0 in 77 W/m2
19:43 67.8 °F 52.5 °F 30 in WSW 2 mph 6 mph 58% 0 in 86 W/m2
19:48 67.8 °F 52.9 °F 30 in West 2.9 mph 3 mph 59% 0 in 88 W/m2
19:53 67.6 °F 52.9 °F 30 in West 4 mph 4 mph 59% 0 in 111 W/m2
19:58 67.6 °F 52.9 °F 30 in Calm   4 mph 59% 0 in 93 W/m2
20:03 67.6 °F 52.9 °F 30 in West 2.9 mph 4 mph 59% 0 in 76 W/m2
20:08 67.5 °F 53.1 °F 30 in NW 6.9 mph 7 mph 60% 0 in 63 W/m2
20:13 67.3 °F 52.9 °F 30 in WSW 4 mph 5 mph 60% 0 in 60 W/m2
20:23 66.9 °F 53.1 °F 30 in WSW 4.9 mph 5 mph 61% 0 in 53 W/m2
20:28 66.7 °F 52.9 °F 30 in WNW 0.9 mph 3 mph 61% 0 in 42 W/m2
20:33 66.7 °F 52.9 °F 30 in West 2.9 mph 3 mph 61% 0 in 37 W/m2
20:38 66.6 °F 52.7 °F 30 in NNW 0.9 mph 3 mph 61% 0 in 32 W/m2
20:43 66.4 °F 52.5 °F 30 in Calm   3 mph 61% 0 in 25 W/m2
20:48 66.2 °F 52.9 °F 30 in West 2 mph 6 mph 62% 0 in 25 W/m2
20:53 65.8 °F 52.5 °F 30 in West 4 mph 4 mph 62% 0 in 25 W/m2
20:58 65.7 °F 52.3 °F 30 in WSW 0.9 mph 4 mph 62% 0 in 19 W/m2
21:03 65.5 °F 52.5 °F 30 in West 2 mph 6 mph 63% 0 in 18 W/m2
21:08 65.1 °F 52.2 °F 30.1 in West 2.9 mph 7 mph 63% 0 in 11 W/m2
21:13 64.9 °F 52 °F 30.1 in West 2.9 mph 6 mph 63% 0 in 5 W/m2
21:18 64.9 °F 52 °F 30.1 in West 2.9 mph 7 mph 63% 0 in 0 W/m2
21:23 64.8 °F 51.8 °F 30.1 in West 2.9 mph 4 mph 63% 0 in 0 W/m2
21:28 64.6 °F 51.6 °F 30.1 in West 4 mph 7 mph 63% 0 in 0 W/m2
21:33 64.2 °F 51.4 °F 30.1 in West 2 mph 7 mph 63% 0 in 0 W/m2
21:38 64 °F 51.6 °F 30.1 in West 2 mph 4 mph 64% 0 in 0 W/m2
21:43 63.9 °F 51.4 °F 30.1 in West 2 mph 7 mph 64% 0 in 0 W/m2
21:48 63.7 °F 51.6 °F 30.1 in WSW 2 mph 4 mph 65% 0 in 0 W/m2
21:53 63.3 °F 51.4 °F 30.1 in SW 2.9 mph 7 mph 65% 0 in 0 W/m2
21:58 63.1 °F 51.3 °F 30.1 in WSW 4 mph 4 mph 65% 0 in 0 W/m2
22:03 63.1 °F 51.6 °F 30.1 in West 2 mph 6 mph 66% 0 in 0 W/m2
22:08 63 °F 51.4 °F 30.1 in WNW 2 mph 6 mph 66% 0 in 0 W/m2
22:13 62.8 °F 51.6 °F 30.1 in WSW 2 mph 6 mph 67% 0 in 0 W/m2
22:18 62.8 °F 51.6 °F 30.1 in WSW 4 mph 5 mph 67% 0 in 0 W/m2
22:23 62.6 °F 51.4 °F 30.1 in West 2.9 mph 4 mph 67% 0 in 0 W/m2
22:29 62.4 °F 51.3 °F 30.1 in West 0.9 mph 4 mph 67% 0 in 0 W/m2
22:34 62.4 °F 51.8 °F 30.1 in West 2.9 mph 6 mph 68% 0 in 0 W/m2
22:39 62.4 °F 51.8 °F 30.1 in SW 4.9 mph 8 mph 68% 0 in 0 W/m2
22:44 62.4 °F 51.8 °F 30.1 in West 2 mph 3 mph 68% 0 in 0 W/m2
22:49 62.4 °F 51.8 °F 30.1 in Calm   8 mph 68% 0 in 0 W/m2
22:54 62.2 °F 51.6 °F 30.1 in West 2 mph 2 mph 68% 0 in 0 W/m2
22:59 62.2 °F 51.6 °F 30.1 in West 2 mph 2 mph 68% 0 in 0 W/m2
23:04 62.1 °F 51.8 °F 30.1 in West 0.9 mph 2 mph 69% 0 in 0 W/m2
23:09 62.1 °F 51.8 °F 30.1 in West 0.9 mph 2 mph 69% 0 in 0 W/m2
23:14 61.7 °F 51.8 °F 30.1 in Calm   1 mph 70% 0 in 0 W/m2
23:19 61.5 °F 51.6 °F 30.1 in Calm   1 mph 70% 0 in 0 W/m2
23:24 61.5 °F 51.6 °F 30.1 in NNW 0.9 mph 3 mph 70% 0 in 0 W/m2
23:29 61.5 °F 51.6 °F 30.1 in Calm   1 mph 70% 0 in 0 W/m2
23:34 61.3 °F 51.8 °F 30.1 in Calm   3 mph 71% 0 in 0 W/m2
23:39 61.2 °F 51.6 °F 30.1 in Calm     71% 0 in 0 W/m2
23:44 61 °F 51.4 °F 30.1 in WNW 0.9 mph 3 mph 71% 0 in 0 W/m2
23:49 60.8 °F 51.8 °F 30.1 in WNW 2 mph 2 mph 72% 0 in 0 W/m2
23:54 60.6 °F 51.6 °F 30.1 in WNW 0.9 mph 3 mph 72% 0 in 0 W/m2
23:59 60.4 °F 51.4 °F 30.1 in WNW 0.9 mph 2 mph 72% 0 in 0 W/m2
Juneau County Weather
Compliments of Weather Underground - 4 mb